• In Hungary
  • List of Countries
  • For 7 days
  • Water Temperature
  • Satellite Maps
  • Weather Map
  • News
  • Weather Widgets
  • user-avatar
    Login

    Hourly Weather Huszcza

    Today, 23 July, Monday

    Time Temperature Precipitation Wind Pressure Humidity
    00:00 +20°C° 0.3 mm 2 mps 744 mmHg 88%
    01:00 +19°C° 0.3 mm 2 mps 744 mmHg 90%
    02:00 +19°C° 0 mm 3 mps 744 mmHg 93%
    03:00 +19°C° 0.2 mm 3 mps 744 mmHg 93%
    04:00 +18°C° 0.2 mm 3 mps 744 mmHg 94%
    05:00 +18°C° 0.2 mm 3 mps 744 mmHg 95%
    06:00 +19°C° 0 mm 4 mps 744 mmHg 91%
    07:00 +21°C° 0 mm 4 mps 744 mmHg 86%
    08:00 +22°C° 0 mm 4 mps 744 mmHg 82%
    09:00 +23°C° 0.5 mm 5 mps 744 mmHg 77%
    10:00 +25°C° 0.5 mm 5 mps 744 mmHg 73%
    11:00 +26°C° 0.5 mm 5 mps 744 mmHg 68%
    12:00 +27°C° 0.6 mm 5 mps 744 mmHg 67%
    13:00 +27°C° 0.6 mm 6 mps 744 mmHg 66%
    14:00 +27°C° 0.6 mm 6 mps 743 mmHg 65%
    15:00 +27°C° 0.5 mm 5 mps 743 mmHg 67%
    16:00 +27°C° 0.5 mm 5 mps 743 mmHg 68%
    17:00 +27°C° 0.5 mm 5 mps 743 mmHg 70%
    18:00 +26°C° 0.2 mm 5 mps 743 mmHg 73%
    19:00 +25°C° 0.2 mm 5 mps 743 mmHg 76%
    20:00 +23°C° 0.2 mm 5 mps 743 mmHg 80%
    21:00 +22°C° 0 mm 5 mps 743 mmHg 80%
    22:00 +22°C° 0 mm 5 mps 744 mmHg 81%
    23:00 +21°C° 0 mm 5 mps 744 mmHg 81%

    Tomorrow, 24 July, Tuesday

    Time Temperature Precipitation Wind Pressure Humidity
    00:00 +21°C° 0 mm 5 mps 744 mmHg 83%
    01:00 +20°C° 0 mm 5 mps 744 mmHg 84%
    02:00 +20°C° 0 mm 4 mps 744 mmHg 85%
    03:00 +20°C° 0 mm 4 mps 744 mmHg 86%
    04:00 +19°C° 0 mm 4 mps 744 mmHg 87%
    05:00 +19°C° 0 mm 4 mps 744 mmHg 88%
    06:00 +20°C° 0.4 mm 4 mps 744 mmHg 87%
    07:00 +20°C° 0.4 mm 4 mps 745 mmHg 86%
    08:00 +21°C° 0.4 mm 5 mps 745 mmHg 85%
    09:00 +22°C° 0.2 mm 5 mps 745 mmHg 84%
    10:00 +22°C° 0.2 mm 5 mps 745 mmHg 82%
    11:00 +23°C° 0.2 mm 4 mps 745 mmHg 80%
    12:00 +25°C° 0.3 mm 5 mps 745 mmHg 76%
    13:00 +26°C° 0.3 mm 5 mps 744 mmHg 72%
    14:00 +27°C° 0.3 mm 5 mps 744 mmHg 67%
    15:00 +27°C° 0.4 mm 5 mps 744 mmHg 67%
    16:00 +27°C° 0.4 mm 5 mps 744 mmHg 68%
    17:00 +27°C° 0.4 mm 5 mps 744 mmHg 68%
    18:00 +26°C° 0.6 mm 4 mps 744 mmHg 74%
    19:00 +25°C° 0.6 mm 4 mps 744 mmHg 79%
    20:00 +22°C° 0.6 mm 4 mps 744 mmHg 85%
    21:00 +22°C° 0.1 mm 3 mps 744 mmHg 88%
    22:00 +21°C° 0.1 mm 3 mps 744 mmHg 90%
    23:00 +20°C° 0.1 mm 3 mps 744 mmHg 93%

    Day after tomorrow, 25 July, Wednesday

    Time Temperature Precipitation Wind Pressure Humidity
    00:00 +20°C° 0 mm 3 mps 744 mmHg 94%
    01:00 +19°C° 0 mm 3 mps 744 mmHg 94%
    02:00 +19°C° 0 mm 3 mps 744 mmHg 95%
    03:00 +19°C° 0 mm 3 mps 744 mmHg 96%
    04:00 +18°C° 0 mm 3 mps 744 mmHg 96%
    05:00 +18°C° 0 mm 2 mps 744 mmHg 97%
    06:00 +19°C° 0.1 mm 3 mps 745 mmHg 95%
    07:00 +20°C° 0.1 mm 3 mps 745 mmHg 92%
    08:00 +21°C° 0.1 mm 3 mps 745 mmHg 90%
    09:00 +22°C° 0.2 mm 3 mps 745 mmHg 87%
    10:00 +24°C° 0.2 mm 3 mps 745 mmHg 84%
    11:00 +24°C° 0.2 mm 3 mps 745 mmHg 81%
    12:00 +26°C° 0.5 mm 3 mps 745 mmHg 76%
    13:00 +27°C° 0.5 mm 3 mps 744 mmHg 70%
    14:00 +28°C° 0.5 mm 3 mps 744 mmHg 65%
    15:00 +28°C° 1.2 mm 3 mps 744 mmHg 68%
    16:00 +27°C° 1.2 mm 3 mps 744 mmHg 70%
    17:00 +27°C° 1.2 mm 4 mps 744 mmHg 73%
    18:00 +26°C° 0.6 mm 3 mps 744 mmHg 77%
    19:00 +25°C° 0.6 mm 3 mps 744 mmHg 82%
    20:00 +24°C° 0.6 mm 2 mps 744 mmHg 87%
    21:00 +23°C° 0 mm 2 mps 744 mmHg 89%
    22:00 +23°C° 0 mm 2 mps 744 mmHg 92%
    23:00 +21°C° 0 mm 2 mps 745 mmHg 94%

    26 July, Thursday

    Time Temperature Precipitation Wind Pressure Humidity
    00:00 +20°C° 0 mm 2 mps 745 mmHg 95%
    01:00 +20°C° 0 mm 2 mps 745 mmHg 95%
    02:00 +20°C° 0 mm 2 mps 745 mmHg 96%
    03:00 +20°C° 0 mm 2 mps 745 mmHg 96%
    04:00 +20°C° 0 mm 2 mps 745 mmHg 96%
    05:00 +19°C° 0 mm 2 mps 745 mmHg 97%
    06:00 +21°C° 0 mm 2 mps 746 mmHg 93%
    07:00 +23°C° 0 mm 2 mps 746 mmHg 88%
    08:00 +24°C° 0 mm 2 mps 746 mmHg 84%
    09:00 +26°C° 0.2 mm 2 mps 746 mmHg 78%
    10:00 +27°C° 0.2 mm 2 mps 746 mmHg 71%
    11:00 +29°C° 0.2 mm 2 mps 746 mmHg 64%
    12:00 +29°C° 0.2 mm 2 mps 746 mmHg 62%
    13:00 +30°C° 0.2 mm 3 mps 746 mmHg 59%
    14:00 +32°C° 0.2 mm 4 mps 746 mmHg 57%
    15:00 +30°C° 0.2 mm 4 mps 746 mmHg 58%
    16:00 +30°C° 0.2 mm 3 mps 746 mmHg 60%
    17:00 +29°C° 0.2 mm 3 mps 746 mmHg 62%
    18:00 +28°C° 0.1 mm 3 mps 746 mmHg 68%
    19:00 +27°C° 0.1 mm 3 mps 746 mmHg 74%
    20:00 +25°C° 0.1 mm 2 mps 746 mmHg 80%
    21:00 +25°C° 0.1 mm 3 mps 746 mmHg 83%
    22:00 +24°C° 0.1 mm 3 mps 747 mmHg 86%
    23:00 +22°C° 0.1 mm 3 mps 747 mmHg 89%

    27 July, Friday

    Time Temperature Precipitation Wind Pressure Humidity
    00:00 +22°C° 0.3 mm 3 mps 747 mmHg 91%
    01:00 +21°C° 0.3 mm 3 mps 747 mmHg 93%
    02:00 +21°C° 0.3 mm 3 mps 747 mmHg 95%
    03:00 +20°C° 0.6 mm 3 mps 747 mmHg 95%
    04:00 +20°C° 0.6 mm 3 mps 747 mmHg 95%
    05:00 +20°C° 0.6 mm 3 mps 747 mmHg 95%
    06:00 +21°C° 0 mm 3 mps 747 mmHg 92%
    07:00 +22°C° 0 mm 3 mps 747 mmHg 88%
    08:00 +23°C° 0 mm 4 mps 748 mmHg 85%
    09:00 +25°C° 0 mm 4 mps 748 mmHg 78%
    10:00 +27°C° 0 mm 4 mps 748 mmHg 72%
    11:00 +28°C° 0 mm 4 mps 748 mmHg 66%
    12:00 +29°C° 0 mm 4 mps 747 mmHg 63%
    13:00 +29°C° 0 mm 4 mps 747 mmHg 60%
    14:00 +30°C° 0 mm 4 mps 747 mmHg 57%
    15:00 +30°C° 0 mm 4 mps 747 mmHg 57%
    16:00 +30°C° 0 mm 3 mps 747 mmHg 58%
    17:00 +30°C° 0 mm 3 mps 747 mmHg 59%
    18:00 +28°C° 0 mm 3 mps 746 mmHg 65%
    19:00 +27°C° 0 mm 2 mps 746 mmHg 71%
    20:00 +26°C° 0 mm 2 mps 746 mmHg 77%
    21:00 +25°C° 0 mm 2 mps 746 mmHg 81%
    22:00 +24°C° 0 mm 2 mps 746 mmHg 84%
    23:00 +23°C° 0 mm 2 mps 746 mmHg 87%

    28 July, Saturday

    Time Temperature Precipitation Wind Pressure Humidity
    00:00 +23°C° 0 mm 2 mps 746 mmHg 89%
    01:00 +22°C° 0 mm 1 mps 746 mmHg 91%
    02:00 +22°C° 0 mm 1 mps 746 mmHg 93%
    03:00 +21°C° 0 mm 1 mps 746 mmHg 94%
    04:00 +21°C° 0 mm 1 mps 745 mmHg 95%
    05:00 +20°C° 0 mm 2 mps 745 mmHg 96%
    06:00 +21°C° 0 mm 2 mps 745 mmHg 91%
    07:00 +24°C° 0 mm 2 mps 746 mmHg 86%
    08:00 +25°C° 0 mm 2 mps 746 mmHg 81%
    09:00 +27°C° 0 mm 2 mps 745 mmHg 75%
    10:00 +28°C° 0 mm 2 mps 745 mmHg 69%
    11:00 +29°C° 0 mm 2 mps 745 mmHg 64%
    12:00 +30°C° 0 mm 2 mps 745 mmHg 61%
    13:00 +30°C° 0 mm 2 mps 745 mmHg 59%
    14:00 +31°C° 0 mm 2 mps 745 mmHg 57%
    15:00 +31°C° 0.4 mm 2 mps 745 mmHg 58%
    16:00 +30°C° 0.4 mm 2 mps 745 mmHg 60%
    17:00 +30°C° 0.4 mm 2 mps 745 mmHg 61%
    18:00 +29°C° 0.2 mm 2 mps 745 mmHg 68%
    19:00 +27°C° 0.2 mm 2 mps 745 mmHg 76%
    20:00 +26°C° 0.2 mm 2 mps 745 mmHg 83%
    21:00 +25°C° 0 mm 2 mps 745 mmHg 85%
    22:00 +24°C° 0 mm 2 mps 745 mmHg 88%
    23:00 +24°C° 0 mm 2 mps 746 mmHg 90%
    Show more